• In Czech Republic
  • List of Countries
  • For 7 days
  • Water Temperature
  • Satellite Maps
  • Weather Map
  • Weather Widgets
  • user-avatar
    Login

    Hourly Weather Toronto

    Today, 11 December, Monday

    Time Temperature Precipitation Wind Pressure Humidity
    00:00 -8°C° 0 mm 6 mps 747 mmHg 79%
    01:00 -8°C° 0 mm 4 mps 748 mmHg 78%
    02:00 -8°C° 0 mm 4 mps 748 mmHg 78%
    03:00 -9°C° 0 mm 4 mps 749 mmHg 78%
    04:00 -9°C° 0 mm 4 mps 749 mmHg 78%
    05:00 -9°C° 0 mm 3 mps 750 mmHg 77%
    06:00 -9°C° 0 mm 3 mps 750 mmHg 76%
    07:00 -9°C° 0 mm 2 mps 750 mmHg 75%
    08:00 -9°C° 0 mm 2 mps 751 mmHg 72%
    09:00 -8°C° 0 mm 2 mps 751 mmHg 70%
    10:00 -8°C° 0 mm 2 mps 751 mmHg 67%
    11:00 -7°C° 0 mm 2 mps 750 mmHg 66%
    12:00 -6°C° 0 mm 2 mps 750 mmHg 64%
    13:00 -5°C° 0 mm 2 mps 750 mmHg 63%
    14:00 -5°C° 0 mm 2 mps 749 mmHg 67%
    15:00 -5°C° 0 mm 2 mps 749 mmHg 71%
    16:00 -6°C° 0 mm 3 mps 748 mmHg 75%
    17:00 -6°C° 0.2 mm 3 mps 747 mmHg 79%
    18:00 -6°C° 0.2 mm 3 mps 747 mmHg 84%
    19:00 -6°C° 0.2 mm 3 mps 746 mmHg 88%
    20:00 -5°C° 0.2 mm 3 mps 745 mmHg 90%
    21:00 -5°C° 0.2 mm 3 mps 745 mmHg 91%
    22:00 -5°C° 0.2 mm 4 mps 744 mmHg 93%
    23:00 -4°C° 0.5 mm 3 mps 743 mmHg 94%

    Tomorrow, 12 December, Tuesday

    Time Temperature Precipitation Wind Pressure Humidity
    00:00 -4°C° 0.5 mm 3 mps 742 mmHg 95%
    01:00 -2°C° 0.5 mm 3 mps 741 mmHg 97%
    02:00 -2°C° 0.6 mm 3 mps 740 mmHg 97%
    03:00 -2°C° 0.6 mm 2 mps 739 mmHg 97%
    04:00 -2°C° 0.6 mm 2 mps 738 mmHg 98%
    05:00 -2°C° 0.6 mm 2 mps 737 mmHg 97%
    06:00 -2°C° 0.6 mm 2 mps 737 mmHg 97%
    07:00 -2°C° 0.6 mm 2 mps 736 mmHg 97%
    08:00 -4°C° 0.4 mm 3 mps 736 mmHg 95%
    09:00 -4°C° 0.4 mm 4 mps 736 mmHg 93%
    10:00 -5°C° 0.4 mm 5 mps 736 mmHg 92%
    11:00 -6°C° 0.3 mm 6 mps 735 mmHg 90%
    12:00 -7°C° 0.3 mm 7 mps 735 mmHg 88%
    13:00 -7°C° 0.3 mm 8 mps 735 mmHg 86%
    14:00 -7°C° 0.2 mm 8 mps 736 mmHg 85%
    15:00 -8°C° 0.2 mm 8 mps 736 mmHg 85%
    16:00 -8°C° 0.2 mm 8 mps 736 mmHg 85%
    17:00 -8°C° 0.2 mm 8 mps 736 mmHg 86%
    18:00 -10°C° 0.2 mm 8 mps 737 mmHg 87%
    19:00 -10°C° 0.2 mm 9 mps 737 mmHg 88%
    20:00 -11°C° 0.2 mm 9 mps 737 mmHg 87%
    21:00 -11°C° 0.2 mm 9 mps 737 mmHg 87%
    22:00 -12°C° 0.2 mm 9 mps 737 mmHg 86%
    23:00 -12°C° 0.1 mm 9 mps 737 mmHg 86%

    Day after tomorrow, 13 December, Wednesday

    Time Temperature Precipitation Wind Pressure Humidity
    00:00 -14°C° 0.1 mm 9 mps 737 mmHg 85%
    01:00 -14°C° 0.1 mm 9 mps 737 mmHg 85%
    02:00 -15°C° 0.1 mm 9 mps 738 mmHg 84%
    03:00 -15°C° 0.1 mm 9 mps 738 mmHg 84%
    04:00 -15°C° 0.1 mm 9 mps 738 mmHg 83%
    05:00 -16°C° 0 mm 9 mps 739 mmHg 83%
    06:00 -16°C° 0 mm 9 mps 739 mmHg 83%
    07:00 -16°C° 0 mm 9 mps 740 mmHg 83%
    08:00 -16°C° 0 mm 9 mps 741 mmHg 82%
    09:00 -16°C° 0 mm 9 mps 741 mmHg 82%
    10:00 -16°C° 0 mm 9 mps 742 mmHg 81%
    11:00 -15°C° 0 mm 9 mps 742 mmHg 80%
    12:00 -13°C° 0 mm 8 mps 742 mmHg 79%
    13:00 -13°C° 0 mm 8 mps 742 mmHg 78%
    14:00 -13°C° 0 mm 8 mps 742 mmHg 80%
    15:00 -13°C° 0 mm 7 mps 742 mmHg 81%
    16:00 -12°C° 0 mm 6 mps 742 mmHg 83%
    17:00 -12°C° 0 mm 6 mps 742 mmHg 84%
    18:00 -14°C° 0 mm 6 mps 742 mmHg 86%
    19:00 -14°C° 0 mm 6 mps 742 mmHg 88%
    20:00 -14°C° 0 mm 6 mps 742 mmHg 88%
    21:00 -14°C° 0 mm 6 mps 742 mmHg 89%
    22:00 -14°C° 0 mm 5 mps 742 mmHg 89%
    23:00 -14°C° 0 mm 5 mps 742 mmHg 90%

    14 December, Thursday

    Time Temperature Precipitation Wind Pressure Humidity
    00:00 -15°C° 0 mm 4 mps 742 mmHg 91%
    01:00 -15°C° 0 mm 4 mps 742 mmHg 92%
    02:00 -15°C° 0 mm 4 mps 742 mmHg 92%
    03:00 -14°C° 0 mm 3 mps 742 mmHg 93%
    04:00 -15°C° 0 mm 3 mps 742 mmHg 93%
    05:00 -15°C° 0 mm 3 mps 742 mmHg 92%
    06:00 -15°C° 0 mm 2 mps 742 mmHg 92%
    07:00 -15°C° 0 mm 2 mps 742 mmHg 92%
    08:00 -15°C° 0 mm 2 mps 743 mmHg 90%
    09:00 -14°C° 0 mm 2 mps 743 mmHg 89%
    10:00 -13°C° 0 mm 2 mps 744 mmHg 87%
    11:00 -12°C° 0 mm 2 mps 744 mmHg 85%
    12:00 -10°C° 0 mm 2 mps 744 mmHg 83%
    13:00 -10°C° 0 mm 2 mps 744 mmHg 81%
    14:00 -10°C° 0 mm 2 mps 744 mmHg 83%
    15:00 -10°C° 0 mm 2 mps 744 mmHg 85%
    16:00 -9°C° 0 mm 1 mps 744 mmHg 87%
    17:00 -10°C° 0 mm 1 mps 745 mmHg 88%
    18:00 -11°C° 0 mm 1 mps 745 mmHg 89%
    19:00 -14°C° 0 mm 2 mps 746 mmHg 90%
    20:00 -14°C° 0 mm 2 mps 746 mmHg 90%
    21:00 -14°C° 0 mm 2 mps 746 mmHg 91%
    22:00 -14°C° 0 mm 2 mps 746 mmHg 91%
    23:00 -14°C° 0 mm 2 mps 746 mmHg 91%

    15 December, Friday

    Time Temperature Precipitation Wind Pressure Humidity
    00:00 -14°C° 0 mm 2 mps 746 mmHg 90%
    01:00 -14°C° 0 mm 2 mps 745 mmHg 90%
    02:00 -12°C° 0 mm 1 mps 745 mmHg 90%
    03:00 -13°C° 0 mm 1 mps 745 mmHg 90%
    04:00 -13°C° 0 mm 1 mps 745 mmHg 90%
    05:00 -13°C° 0 mm 1 mps 745 mmHg 90%
    06:00 -13°C° 0 mm 1 mps 745 mmHg 90%
    07:00 -13°C° 0 mm 1 mps 745 mmHg 90%
    08:00 -11°C° 0 mm 1 mps 745 mmHg 89%
    09:00 -10°C° 0 mm 1 mps 745 mmHg 88%
    10:00 -9°C° 0 mm 1 mps 745 mmHg 87%
    11:00 -8°C° 0 mm 1 mps 745 mmHg 86%
    12:00 -7°C° 0 mm 1 mps 744 mmHg 85%
    13:00 -7°C° 0 mm 2 mps 743 mmHg 85%
    14:00 -7°C° 0 mm 2 mps 743 mmHg 87%
    15:00 -7°C° 0 mm 2 mps 742 mmHg 89%
    16:00 -7°C° 0 mm 2 mps 742 mmHg 91%
    17:00 -8°C° 0.1 mm 2 mps 742 mmHg 92%
    18:00 -8°C° 0.1 mm 2 mps 742 mmHg 92%
    19:00 -8°C° 0.1 mm 2 mps 742 mmHg 93%
    20:00 -8°C° 0 mm 2 mps 742 mmHg 93%
    21:00 -9°C° 0 mm 2 mps 742 mmHg 94%
    22:00 -9°C° 0 mm 2 mps 742 mmHg 94%
    23:00 -8°C° 0.1 mm 2 mps 742 mmHg 94%

    16 December, Saturday

    Time Temperature Precipitation Wind Pressure Humidity
    00:00 -9°C° 0.1 mm 3 mps 743 mmHg 94%
    01:00 -10°C° 0.1 mm 4 mps 743 mmHg 95%
    02:00 -10°C° 0.1 mm 4 mps 743 mmHg 93%
    03:00 -11°C° 0.1 mm 4 mps 744 mmHg 91%
    04:00 -11°C° 0.1 mm 4 mps 744 mmHg 89%
    05:00 -11°C° 0 mm 4 mps 745 mmHg 89%
    06:00 -12°C° 0 mm 4 mps 745 mmHg 89%
    07:00 -12°C° 0 mm 4 mps 746 mmHg 90%
    08:00 -12°C° 0 mm 5 mps 746 mmHg 88%
    09:00 -12°C° 0 mm 6 mps 747 mmHg 87%
    10:00 -11°C° 0 mm 6 mps 747 mmHg 85%
    11:00 -11°C° 0.1 mm 7 mps 748 mmHg 83%
    12:00 -10°C° 0.1 mm 8 mps 748 mmHg 81%
    13:00 -10°C° 0.1 mm 8 mps 748 mmHg 79%
    14:00 -9°C° 0.1 mm 7 mps 749 mmHg 82%
    15:00 -11°C° 0.1 mm 7 mps 749 mmHg 84%
    16:00 -11°C° 0.1 mm 6 mps 750 mmHg 87%
    17:00 -12°C° 0 mm 5 mps 750 mmHg 87%
    18:00 -12°C° 0 mm 3 mps 751 mmHg 88%
    19:00 -12°C° 0 mm 2 mps 752 mmHg 88%
    20:00 -12°C° 0 mm 2 mps 752 mmHg 88%
    21:00 -11°C° 0 mm 1 mps 753 mmHg 88%
    22:00 -11°C° 0 mm 1 mps 753 mmHg 88%
    23:00 -12°C° 0 mm 2 mps 753 mmHg 88%
    Show more